Flag for Kazakhstan Weather past 2 weeks in Almaty, Kazakhstan

Now
28 °F

Ice fog.


Feels Like: 28 °F
Forecast: 26 / 46 °F
Wind: 1 mph from Southwest

Location: Almaty Airport

Current Time: Dec 26, 2014 at 7:47:31 PM

Latest Report: Dec 26, 2014 at 7:00 PM


Visibility: 0 mi

Pressure: 30.45 "Hg

Humidity: 80%

Dew point: 23 °F

Location of AlmatyLocation

Historic Weather in Almaty — Graph

°F

Almaty temperature yesterday

Maximum temperature yesterday: 43 °F (at 3:30 PM)
Minimum temperature yesterday: 21 °F (at 1:00 AM)
Average temperature yesterday: 34 °F

Past Weeks' High & Low Weather Summary

 TemperatureHumidityPressure
High43 °F (Dec 25, 3:30 PM)93% (Dec 21, 8:30 AM)30.66 "Hg (Dec 21, 8:30 AM)
Low0 °F (Dec 12, 6:00 AM)48% (Dec 25, 4:30 AM)29.92 "Hg (Dec 24, 1:30 PM)
Average20 °F77%30.30 "Hg
* Reported Dec 11 6:00 PM — Dec 26 6:30 PM, Almaty, Weather by CustomWeather, © 2014

Note: Actual official high and low records may vary slightly from our data, if they occured in-between our weather recording intervals... More about our weather records

Advertising

Almaty weather history for previous 24 hours

 ConditionsComfort  
Time TempWeatherWind HumidityBarometerVisibility
6:30 PM
Dec 26
28 °FIce fog.3 mph74%30.45 "Hg1 mi
6:00 PM28 °FPassing clouds.3 mph74%30.45 "HgN/A
5:30 PM30 °FPassing clouds.6 mph69%30.45 "HgN/A
5:00 PM32 °FPassing clouds.8 mph69%30.45 "HgN/A
4:30 PM34 °FPassing clouds.8 mph65%30.45 "HgN/A
4:00 PM36 °FPassing clouds.10 mph60%30.48 "HgN/A
3:30 PM36 °FScattered clouds.8 mph60%30.48 "HgN/A
3:00 PM37 °FScattered clouds.10 mph60%30.48 "HgN/A
2:30 PM37 °FBroken clouds.10 mph60%30.48 "HgN/A
2:00 PM36 °FBroken clouds.8 mph70%30.48 "HgN/A
1:30 PM36 °FBroken clouds.10 mph70%30.48 "HgN/A
1:00 PM37 °FBroken clouds.8 mph60%30.48 "HgN/A
12:30 PM36 °FBroken clouds.8 mph60%30.51 "HgN/A
12:00 PM36 °FBroken clouds.6 mph65%30.51 "HgN/A
11:30 AM37 °FPartly sunny.8 mph56%30.51 "HgN/A
11:00 AM36 °FPartly sunny.6 mph65%30.51 "Hg3 mi
10:30 AM34 °FFog.3 mph75%30.51 "Hg3 mi
10:00 AM32 °FIce fog.3 mph80%30.51 "Hg3 mi
9:30 AM32 °FPartly sunny.8 mph87%30.48 "HgN/A
8:30 AM32 °FBroken clouds.6 mph93%30.45 "HgN/A
8:00 AM34 °FFog.6 mph87%30.45 "Hg3 mi
7:30 AM34 °FMostly cloudy.3 mph93%30.45 "HgN/A
7:00 AM34 °FMostly cloudy.8 mph93%30.45 "HgN/A
6:30 AM32 °FMostly cloudy.13 mph93%30.42 "HgN/A
6:00 AM32 °FLight snow. Ice fog.10 mph93%30.42 "Hg2 mi
5:30 AM32 °FLight snow. Ice fog.10 mph93%30.42 "Hg3 mi
5:00 AM32 °FLight snow. Ice fog.6 mph93%30.42 "Hg1 mi
4:30 AM32 °FLight snow. Ice fog.15 mph93%30.42 "Hg1 mi
4:00 AM32 °FLight snow. Ice fog.13 mph93%30.42 "Hg1 mi
3:30 AM32 °FSnow. Ice fog.15 mph93%30.39 "Hg1 mi
3:00 AM34 °FFog.22 mph81%30.33 "Hg2 mi
2:30 AM32 °FIce fog.15 mph80%30.27 "Hg2 mi
2:00 AM28 °FIce fog.3 mph86%30.15 "Hg1 mi
1:30 AM28 °FIce fog.3 mph86%30.12 "Hg1 mi
1:00 AM28 °FIce fog.3 mph86%30.09 "Hg1 mi
12:30 AM28 °FIce fog.3 mph86%30.09 "Hg1 mi
12:00 AM28 °FIce fog.6 mph86%30.12 "Hg1 mi
11:30 PM
Dec 25
30 °FIce fog.3 mph80%30.12 "Hg1 mi
11:00 PM28 °FIce fog.6 mph86%30.12 "Hg1 mi
10:30 PM30 °FIce fog.6 mph80%30.09 "Hg1 mi
10:00 PM30 °FIce fog.1 mph86%30.07 "Hg1 mi
9:30 PM32 °FIce fog.No wind80%30.07 "Hg1 mi
9:00 PM32 °FIce fog.No wind80%30.09 "Hg1 mi
8:30 PM32 °FIce fog.1 mph80%30.09 "Hg1 mi
8:00 PM32 °FIce fog.1 mph80%30.09 "Hg2 mi
7:30 PM34 °FFog.No wind75%30.09 "Hg1 mi
7:00 PM32 °FIce fog.1 mph80%30.09 "Hg1 mi
Weather by CustomWeather, © 2014

See weather overviewHow to use our weather pages